Aérodrome :
LOGIN :

S'inscrire | Disclaimer

   EN    FR    IT 

 










Légende :    VFR   VFR Marginal   IFR   IFR Intensif   IFR Très Intensif
Visi : 
Plafond : 
>= 8 km
>= 3000ft
5 à 8 km
1000 à 3000 ft
1500m à 5 km
500 à 1000 ft
800 à 1500m
200 à 500 ft
< 800m
< 200 ft
Symboles :   Orages  Brouillard  Fortes neiges  Fortes précipitations  Vent > 20 kt
SIGMETs :   Divers  Orages  Givrage  Turbulence  Onde Orograph.  Cendres Volcan.







- Altitude de l'aérodrome : 59 ft
- Code IATA : TSF


LIPH - Treviso

DERNIER METAR :
  • 280020Z AUTO VRB02KT 9999 SCT160/// BKN220/// 20/16 Q1010

METARs EXPIRÉS :
  • 272350Z AUTO 01003KT 9999 OVC160/// 21/17 Q1010
  • 272320Z AUTO VRB01KT 9999 BKN160/// 21/17 Q1010
  • 272250Z AUTO VRB01KT 9999 SCT250/// 22/16 Q1010
  • 272220Z AUTO 01002KT 9999 BKN190/// BKN240/// 22/16 Q1010
  • 272150Z AUTO VRB02KT 9999 SCT190/// BKN240/// 23/16 Q1010

TAF TAF LIPH
Valide du 28 à 00h jusqu'au 29 à 00h UTC


272300Z 2800/2824 VRB05KT CAVOK
Pas de NOTAMs connus pour ce terrain.



MET'MAP, la Météo Aéronautique d'un coup d'oeil ! - Copyright ORBIFLY Décembre 2007 - Disclaimer

ORBIFLY MET'MAP TEAM :

Programmation & Développement : Alexandra Zaïnal
Conception & Développement : Baudouin d'Aumeries
Co-Programmation & Développement : Marc-Olivier Méhu
Soutien technique & logistique : Manuel Goepfert

Contact : metmap@orbifly.com




SOURCES & CREDITS :

   NOAA